Year,Month,Day,Hour,Minute,Value (Times are PST for temperature in C)
2014,10,09,00,00,10.90
2014,10,09,00,01,10.90
2014,10,09,00,02,10.90
2014,10,09,00,03,10.90
2014,10,09,00,04,10.90
2014,10,09,00,05,10.90
2014,10,09,00,06,10.90
2014,10,09,00,07,10.90
2014,10,09,00,08,10.90
2014,10,09,00,09,10.90
2014,10,09,00,10,10.90
2014,10,09,00,11,10.80
2014,10,09,00,12,10.80
2014,10,09,00,13,10.80
2014,10,09,00,14,10.80
2014,10,09,00,15,10.80
2014,10,09,00,16,10.80
2014,10,09,00,17,10.80
2014,10,09,00,18,10.80
2014,10,09,00,19,10.80
2014,10,09,00,20,10.80
2014,10,09,00,21,10.80
2014,10,09,00,22,10.80
2014,10,09,00,23,10.80
2014,10,09,00,24,10.80
2014,10,09,00,25,10.80
2014,10,09,00,26,10.80
2014,10,09,00,27,10.80
2014,10,09,00,28,10.80
2014,10,09,00,29,10.70
2014,10,09,00,30,10.70
2014,10,09,00,31,10.70
2014,10,09,00,32,10.70
2014,10,09,00,33,10.70
2014,10,09,00,34,10.70
2014,10,09,00,35,10.70
2014,10,09,00,36,10.70
2014,10,09,00,37,10.70
2014,10,09,00,38,10.70
2014,10,09,00,39,10.70
2014,10,09,00,40,10.70
2014,10,09,00,41,10.60
2014,10,09,00,42,10.60
2014,10,09,00,43,10.60
2014,10,09,00,44,10.60
2014,10,09,00,45,10.60
2014,10,09,00,46,10.60
2014,10,09,00,47,10.50
2014,10,09,00,48,10.50
2014,10,09,00,49,10.50
2014,10,09,00,50,10.40
2014,10,09,00,51,10.40
2014,10,09,00,52,10.40
2014,10,09,00,53,10.40
2014,10,09,00,54,10.40
2014,10,09,00,55,10.40
2014,10,09,00,56,10.40
2014,10,09,00,57,10.40
2014,10,09,00,58,10.40
2014,10,09,00,59,10.40
2014,10,09,01,00,10.30
2014,10,09,01,01,10.30
2014,10,09,01,02,10.30
2014,10,09,01,03,10.30
2014,10,09,01,04,10.30
2014,10,09,01,05,10.30
2014,10,09,01,06,10.30
2014,10,09,01,07,10.30
2014,10,09,01,08,10.30
2014,10,09,01,09,10.30
2014,10,09,01,10,10.40
2014,10,09,01,11,10.40
2014,10,09,01,12,10.40
2014,10,09,01,13,10.40
2014,10,09,01,14,10.40
2014,10,09,01,15,10.40
2014,10,09,01,16,10.40
2014,10,09,01,17,10.40
2014,10,09,01,18,10.40
2014,10,09,01,19,10.40
2014,10,09,01,20,10.40
2014,10,09,01,21,10.40
2014,10,09,01,22,10.40
2014,10,09,01,23,10.40
2014,10,09,01,24,10.40
2014,10,09,01,25,10.40
2014,10,09,01,26,10.40
2014,10,09,01,27,10.40
2014,10,09,01,28,10.40
2014,10,09,01,29,10.50
2014,10,09,01,30,10.50
2014,10,09,01,31,10.50
2014,10,09,01,32,10.50
2014,10,09,01,33,10.60
2014,10,09,01,34,10.60
2014,10,09,01,35,10.60
2014,10,09,01,36,10.60
2014,10,09,01,37,10.60
2014,10,09,01,38,10.60
2014,10,09,01,39,10.60
2014,10,09,01,40,10.60
2014,10,09,01,41,10.70
2014,10,09,01,42,10.70
2014,10,09,01,43,10.70
2014,10,09,01,44,10.70
2014,10,09,01,45,10.70
2014,10,09,01,46,10.80
2014,10,09,01,47,10.80
2014,10,09,01,48,10.80
2014,10,09,01,49,10.80
2014,10,09,01,50,10.80
2014,10,09,01,51,10.80
2014,10,09,01,52,10.80
2014,10,09,01,53,10.80
2014,10,09,01,54,10.80
2014,10,09,01,55,10.80
2014,10,09,01,56,10.80
2014,10,09,01,57,10.80
2014,10,09,01,58,10.80
2014,10,09,01,59,10.80
2014,10,09,02,00,10.80
2014,10,09,02,01,10.90
2014,10,09,02,02,10.90
2014,10,09,02,03,10.90
2014,10,09,02,04,10.90
2014,10,09,02,05,10.90
2014,10,09,02,06,10.90
2014,10,09,02,07,10.90
2014,10,09,02,08,10.90
2014,10,09,02,09,10.90
2014,10,09,02,10,10.90
2014,10,09,02,11,10.90
2014,10,09,02,12,10.90
2014,10,09,02,13,10.90
2014,10,09,02,14,10.90
2014,10,09,02,15,10.90
2014,10,09,02,16,10.90
2014,10,09,02,17,10.90
2014,10,09,02,18,10.90
2014,10,09,02,19,10.90
2014,10,09,02,20,10.90
2014,10,09,02,21,10.90
2014,10,09,02,22,10.90
2014,10,09,02,23,10.90
2014,10,09,02,24,10.90
2014,10,09,02,25,10.90
2014,10,09,02,26,10.90
2014,10,09,02,27,10.90
2014,10,09,02,28,10.90
2014,10,09,02,29,10.90
2014,10,09,02,30,11.00
2014,10,09,02,31,11.00
2014,10,09,02,32,11.00
2014,10,09,02,33,11.00
2014,10,09,02,34,11.10
2014,10,09,02,35,11.10
2014,10,09,02,36,11.10
2014,10,09,02,37,11.10
2014,10,09,02,38,11.10
2014,10,09,02,39,11.10
2014,10,09,02,40,11.10
2014,10,09,02,41,11.10
2014,10,09,02,42,11.10
2014,10,09,02,43,11.20
2014,10,09,02,44,11.20
2014,10,09,02,45,11.20
2014,10,09,02,46,11.20
2014,10,09,02,47,11.20
2014,10,09,02,48,11.20
2014,10,09,02,49,11.20
2014,10,09,02,50,11.20
2014,10,09,02,51,11.20
2014,10,09,02,52,11.20
2014,10,09,02,53,11.20
2014,10,09,02,54,11.20
2014,10,09,02,55,11.20
2014,10,09,02,56,11.20
2014,10,09,02,57,11.20
2014,10,09,02,58,11.20
2014,10,09,02,59,11.20
2014,10,09,03,00,11.20
2014,10,09,03,01,11.20
2014,10,09,03,02,11.30
2014,10,09,03,03,11.30
2014,10,09,03,04,11.30
2014,10,09,03,05,11.30
2014,10,09,03,06,11.30
2014,10,09,03,07,11.30
2014,10,09,03,08,11.30
2014,10,09,03,09,11.30
2014,10,09,03,10,11.30
2014,10,09,03,11,11.30
2014,10,09,03,12,11.40
2014,10,09,03,13,11.40
2014,10,09,03,14,11.40
2014,10,09,03,15,11.40
2014,10,09,03,16,11.40
2014,10,09,03,17,11.40
2014,10,09,03,18,11.40
2014,10,09,03,19,11.40
2014,10,09,03,20,11.50
2014,10,09,03,21,11.50
2014,10,09,03,22,11.50
2014,10,09,03,23,11.50
2014,10,09,03,24,11.50
2014,10,09,03,25,11.60
2014,10,09,03,26,11.60
2014,10,09,03,27,11.60
2014,10,09,03,28,11.60
2014,10,09,03,29,11.60
2014,10,09,03,30,11.60
2014,10,09,03,31,11.60
2014,10,09,03,32,11.60
2014,10,09,03,33,11.70
2014,10,09,03,34,11.70
2014,10,09,03,35,11.70
2014,10,09,03,36,11.70
2014,10,09,03,37,11.70
2014,10,09,03,38,11.70
2014,10,09,03,39,11.70
2014,10,09,03,40,11.70
2014,10,09,03,41,11.70
2014,10,09,03,42,11.70
2014,10,09,03,43,11.70
2014,10,09,03,44,11.70
2014,10,09,03,45,11.70
2014,10,09,03,46,11.70
2014,10,09,03,47,11.80
2014,10,09,03,48,11.80
2014,10,09,03,49,11.80
2014,10,09,03,50,11.80
2014,10,09,03,51,11.80
2014,10,09,03,52,11.80
2014,10,09,03,53,11.80
2014,10,09,03,54,11.80
2014,10,09,03,55,11.80
2014,10,09,03,56,11.80
2014,10,09,03,57,11.80
2014,10,09,03,58,11.80
2014,10,09,03,59,11.80
2014,10,09,04,00,11.80
2014,10,09,04,01,11.90
2014,10,09,04,02,11.90
2014,10,09,04,03,11.90
2014,10,09,04,04,11.90
2014,10,09,04,05,11.90
2014,10,09,04,06,11.90
2014,10,09,04,07,11.90
2014,10,09,04,08,11.90
2014,10,09,04,09,11.90
2014,10,09,04,10,12.00
2014,10,09,04,11,12.00
2014,10,09,04,12,12.00
2014,10,09,04,13,12.00
2014,10,09,04,14,12.00
2014,10,09,04,15,12.00
2014,10,09,04,16,12.00
2014,10,09,04,17,12.00
2014,10,09,04,18,12.10
2014,10,09,04,19,12.10
2014,10,09,04,20,12.10
2014,10,09,04,21,12.10
2014,10,09,04,22,12.10
2014,10,09,04,23,12.10
2014,10,09,04,24,12.10
2014,10,09,04,25,12.10
2014,10,09,04,26,12.10
2014,10,09,04,27,12.10
2014,10,09,04,28,12.10
2014,10,09,04,29,12.20
2014,10,09,04,30,12.20
2014,10,09,04,31,12.20
2014,10,09,04,32,12.20
2014,10,09,04,33,12.20
2014,10,09,04,34,12.20
2014,10,09,04,35,12.20
2014,10,09,04,36,12.20
2014,10,09,04,37,12.20
2014,10,09,04,38,12.20
2014,10,09,04,39,12.20
2014,10,09,04,40,12.20
2014,10,09,04,41,12.20
2014,10,09,04,42,12.20
2014,10,09,04,43,12.20
2014,10,09,04,44,12.20
2014,10,09,04,45,12.20
2014,10,09,04,46,12.20
2014,10,09,04,47,12.20
2014,10,09,04,48,12.20
2014,10,09,04,49,12.20
2014,10,09,04,50,12.20
2014,10,09,04,51,12.20
2014,10,09,04,52,12.20
2014,10,09,04,53,12.20
2014,10,09,04,54,12.20
2014,10,09,04,55,12.20
2014,10,09,04,56,12.20
2014,10,09,04,57,12.20
2014,10,09,04,58,12.20
2014,10,09,04,59,12.30
2014,10,09,05,00,12.30
2014,10,09,05,01,12.30
2014,10,09,05,02,12.30
2014,10,09,05,03,12.30
2014,10,09,05,04,12.30
2014,10,09,05,05,12.30
2014,10,09,05,06,12.30
2014,10,09,05,07,12.30
2014,10,09,05,08,12.30
2014,10,09,05,09,12.30
2014,10,09,05,10,12.30
2014,10,09,05,11,12.30
2014,10,09,05,12,12.30
2014,10,09,05,13,12.30
2014,10,09,05,14,12.30
2014,10,09,05,15,12.30
2014,10,09,05,16,12.30
2014,10,09,05,17,12.30
2014,10,09,05,18,12.30
2014,10,09,05,19,12.40
2014,10,09,05,20,12.40
2014,10,09,05,21,12.40
2014,10,09,05,22,12.40
2014,10,09,05,23,12.40
2014,10,09,05,24,12.40
2014,10,09,05,25,12.40
2014,10,09,05,26,12.50
2014,10,09,05,27,12.50
2014,10,09,05,28,12.50
2014,10,09,05,29,12.50
2014,10,09,05,30,12.50
2014,10,09,05,31,12.50
2014,10,09,05,32,12.50
2014,10,09,05,33,12.50
2014,10,09,05,34,12.50
2014,10,09,05,35,12.50
2014,10,09,05,36,12.50
2014,10,09,05,37,12.50
2014,10,09,05,38,12.50
2014,10,09,05,39,12.50
2014,10,09,05,40,12.50
2014,10,09,05,41,12.50
2014,10,09,05,42,12.50
2014,10,09,05,43,12.50
2014,10,09,05,44,12.50
2014,10,09,05,45,12.50
2014,10,09,05,46,12.50
2014,10,09,05,47,12.50
2014,10,09,05,48,12.50
2014,10,09,05,49,12.50
2014,10,09,05,50,12.50
2014,10,09,05,51,12.50
2014,10,09,05,52,12.50
2014,10,09,05,53,12.50
2014,10,09,05,54,12.50
2014,10,09,05,55,12.60
2014,10,09,05,56,12.60
2014,10,09,05,57,12.60
2014,10,09,05,58,12.60
2014,10,09,05,59,12.60
2014,10,09,06,00,12.60
2014,10,09,06,01,12.60
2014,10,09,06,02,12.60
2014,10,09,06,03,12.60
2014,10,09,06,04,12.60
2014,10,09,06,05,12.60
2014,10,09,06,06,12.60
2014,10,09,06,07,12.60
2014,10,09,06,08,12.60
2014,10,09,06,09,12.60
2014,10,09,06,10,12.60
2014,10,09,06,11,12.60
2014,10,09,06,12,12.60
2014,10,09,06,13,12.60
2014,10,09,06,14,12.60
2014,10,09,06,15,12.60
2014,10,09,06,16,12.60
2014,10,09,06,17,12.60
2014,10,09,06,18,12.60
2014,10,09,06,19,12.60
2014,10,09,06,20,12.60
2014,10,09,06,21,12.60
2014,10,09,06,22,12.60
2014,10,09,06,23,12.60
2014,10,09,06,24,12.60
2014,10,09,06,25,12.60
2014,10,09,06,26,12.60
2014,10,09,06,27,12.60
2014,10,09,06,28,12.60
2014,10,09,06,29,12.60
2014,10,09,06,30,12.60
2014,10,09,06,31,12.60
2014,10,09,06,32,12.60
2014,10,09,06,33,12.60
2014,10,09,06,34,12.60
2014,10,09,06,35,12.60
2014,10,09,06,36,12.60
2014,10,09,06,37,12.60
2014,10,09,06,38,12.60
2014,10,09,06,39,12.60
2014,10,09,06,40,12.60
2014,10,09,06,41,12.60
2014,10,09,06,42,12.60
2014,10,09,06,43,12.60
2014,10,09,06,44,12.60
2014,10,09,06,45,12.60
2014,10,09,06,46,12.60
2014,10,09,06,47,12.60
2014,10,09,06,48,12.60
2014,10,09,06,49,12.60
2014,10,09,06,50,12.60
2014,10,09,06,51,12.60
2014,10,09,06,52,12.60
2014,10,09,06,53,12.60
2014,10,09,06,54,12.60
2014,10,09,06,55,12.60
2014,10,09,06,56,12.60
2014,10,09,06,57,12.60
2014,10,09,06,58,12.60
2014,10,09,06,59,12.60
2014,10,09,07,00,12.60
2014,10,09,07,01,12.60
2014,10,09,07,02,12.60
2014,10,09,07,03,12.60
2014,10,09,07,04,12.60
2014,10,09,07,05,12.60
2014,10,09,07,06,12.60
2014,10,09,07,07,12.60
2014,10,09,07,08,12.70
2014,10,09,07,09,12.70
2014,10,09,07,10,12.70
2014,10,09,07,11,12.70
2014,10,09,07,12,12.70
2014,10,09,07,13,12.70
2014,10,09,07,14,12.70
2014,10,09,07,15,12.70
2014,10,09,07,16,12.70
2014,10,09,07,17,12.70
2014,10,09,07,18,12.70
2014,10,09,07,19,12.70
2014,10,09,07,20,12.70
2014,10,09,07,21,12.70
2014,10,09,07,22,12.70
2014,10,09,07,23,12.70
2014,10,09,07,24,12.70
2014,10,09,07,25,12.70
2014,10,09,07,26,12.70
2014,10,09,07,27,12.70
2014,10,09,07,28,12.70
2014,10,09,07,29,12.70
2014,10,09,07,30,12.70
2014,10,09,07,31,12.70
2014,10,09,07,32,12.70
2014,10,09,07,33,12.70
2014,10,09,07,34,12.70
2014,10,09,07,35,12.70
2014,10,09,07,36,12.70
2014,10,09,07,37,12.70
2014,10,09,07,38,12.70
2014,10,09,08,27,12.70
2014,10,09,08,28,12.70
2014,10,09,08,29,12.70
2014,10,09,08,30,12.70
2014,10,09,08,31,12.70
2014,10,09,08,32,12.70
2014,10,09,08,33,12.70
2014,10,09,08,34,12.70
2014,10,09,08,35,12.70
2014,10,09,08,36,12.70
2014,10,09,08,37,12.70
2014,10,09,08,38,12.70
2014,10,09,08,39,12.70
2014,10,09,08,40,12.70
2014,10,09,08,41,12.70
2014,10,09,08,42,12.70
2014,10,09,08,43,12.70
2014,10,09,08,44,12.70
2014,10,09,08,45,12.80
2014,10,09,08,46,12.80
2014,10,09,08,47,12.80
2014,10,09,08,48,12.80
2014,10,09,08,49,12.80
2014,10,09,08,50,12.80
2014,10,09,08,51,12.80
2014,10,09,08,52,12.80
2014,10,09,08,53,12.90
2014,10,09,08,54,12.90
2014,10,09,08,55,12.90
2014,10,09,08,56,13.00
2014,10,09,08,57,13.00
2014,10,09,08,58,13.00
2014,10,09,08,59,13.00
2014,10,09,09,00,13.10
2014,10,09,09,01,13.10
2014,10,09,09,02,13.10
2014,10,09,09,03,13.10
2014,10,09,09,04,13.20
2014,10,09,09,05,13.20
2014,10,09,09,06,13.20
2014,10,09,09,07,13.20
2014,10,09,09,08,13.20
2014,10,09,09,09,13.20
2014,10,09,09,10,13.20
2014,10,09,09,11,13.20
2014,10,09,10,06,13.70
2014,10,09,10,07,13.70
2014,10,09,10,08,13.70
2014,10,09,10,09,13.70
2014,10,09,10,10,13.70
2014,10,09,10,11,13.80
2014,10,09,10,12,13.80
2014,10,09,10,13,13.80
2014,10,09,10,14,13.80
2014,10,09,10,15,13.80
2014,10,09,10,16,13.80
2014,10,09,10,17,13.80
2014,10,09,10,18,13.80
2014,10,09,10,19,13.80
2014,10,09,10,20,13.80
2014,10,09,10,21,13.80
2014,10,09,10,22,13.90
2014,10,09,10,23,13.90
2014,10,09,10,24,13.90
2014,10,09,10,25,13.90
2014,10,09,10,26,13.90
2014,10,09,10,27,13.90
2014,10,09,10,28,13.90
2014,10,09,10,29,13.90
2014,10,09,10,30,13.90
2014,10,09,10,31,13.90
2014,10,09,10,32,13.90
2014,10,09,10,33,13.90
2014,10,09,10,34,13.90
2014,10,09,10,35,14.00
2014,10,09,10,36,14.00
2014,10,09,10,37,14.00
2014,10,09,10,38,14.00
2014,10,09,10,39,14.00
2014,10,09,10,40,14.00
2014,10,09,10,41,14.00
2014,10,09,10,42,14.00
2014,10,09,10,43,14.00
2014,10,09,10,44,14.00
2014,10,09,10,45,14.10
2014,10,09,10,46,14.10
2014,10,09,10,47,14.10
2014,10,09,10,48,14.10
2014,10,09,10,49,14.00
2014,10,09,10,50,14.10
2014,10,09,10,51,14.10
2014,10,09,10,52,14.10
2014,10,09,10,53,14.10
2014,10,09,10,54,14.10
2014,10,09,10,55,14.20
2014,10,09,10,56,14.20
2014,10,09,10,57,14.20
2014,10,09,10,58,14.20
2014,10,09,10,59,14.20
2014,10,09,11,00,14.20
2014,10,09,11,01,14.20
2014,10,09,11,02,14.20
2014,10,09,11,03,14.20
2014,10,09,11,04,14.20
2014,10,09,11,05,14.20
2014,10,09,11,06,14.20
2014,10,09,11,07,14.20
2014,10,09,11,08,14.20
2014,10,09,11,09,14.20
2014,10,09,11,10,14.20
2014,10,09,11,11,14.20
2014,10,09,11,12,14.20
2014,10,09,11,13,14.20
2014,10,09,11,14,14.20
2014,10,09,11,15,14.30
2014,10,09,11,16,14.30
2014,10,09,11,17,14.30
2014,10,09,11,18,14.30
2014,10,09,11,19,14.30
2014,10,09,11,20,14.30
2014,10,09,11,21,14.30
2014,10,09,11,22,14.30
2014,10,09,11,23,14.30
2014,10,09,11,24,14.30
2014,10,09,11,25,14.40
2014,10,09,11,26,14.40
2014,10,09,11,27,14.40
2014,10,09,11,28,14.40
2014,10,09,11,29,14.40
2014,10,09,11,30,14.40
2014,10,09,11,31,14.50
2014,10,09,11,32,14.50
2014,10,09,11,33,14.50
2014,10,09,11,34,14.60
2014,10,09,11,35,14.60
2014,10,09,11,36,14.60
2014,10,09,11,37,14.60
2014,10,09,11,38,14.70
2014,10,09,11,39,14.70
2014,10,09,11,40,14.70
2014,10,09,11,41,14.70
2014,10,09,11,42,14.70
2014,10,09,11,43,14.70
2014,10,09,11,44,14.70
2014,10,09,11,45,14.70
2014,10,09,11,46,14.70
2014,10,09,11,47,14.70
2014,10,09,11,48,14.70
2014,10,09,11,49,14.70
2014,10,09,11,50,14.80
2014,10,09,11,51,14.80
2014,10,09,11,52,14.80
2014,10,09,11,53,14.80
2014,10,09,11,54,14.80
2014,10,09,11,55,14.80
2014,10,09,11,56,14.80
2014,10,09,11,57,14.80
2014,10,09,11,58,14.80
2014,10,09,11,59,14.80
2014,10,09,12,00,14.80
2014,10,09,12,01,14.90
2014,10,09,12,02,14.90
2014,10,09,12,03,14.80
2014,10,09,12,04,14.80
2014,10,09,12,05,14.80
2014,10,09,12,06,14.80
2014,10,09,12,07,14.80
2014,10,09,12,08,14.80
2014,10,09,12,09,14.80
2014,10,09,12,10,14.80
2014,10,09,12,11,14.90
2014,10,09,12,12,14.90
2014,10,09,12,13,15.00
2014,10,09,12,14,15.00
2014,10,09,12,15,15.00
2014,10,09,12,16,15.00
2014,10,09,12,17,15.00
2014,10,09,12,18,15.00
2014,10,09,12,19,15.00
2014,10,09,12,20,15.00
2014,10,09,12,21,15.00
2014,10,09,12,22,15.00
2014,10,09,12,23,15.10
2014,10,09,12,24,15.10
2014,10,09,12,25,15.20
2014,10,09,12,26,15.20
2014,10,09,12,27,15.30
2014,10,09,12,28,15.30
2014,10,09,12,29,15.30
2014,10,09,12,30,15.30
2014,10,09,12,31,15.40
2014,10,09,12,32,15.40
2014,10,09,12,33,15.40
2014,10,09,12,34,15.50
2014,10,09,12,35,15.50
2014,10,09,12,36,15.50
2014,10,09,12,37,15.50
2014,10,09,12,38,15.50
2014,10,09,12,39,15.50
2014,10,09,12,40,15.60
2014,10,09,12,41,15.60
2014,10,09,12,42,15.60
2014,10,09,12,43,15.60
2014,10,09,12,44,15.60
2014,10,09,12,45,15.60
2014,10,09,12,46,15.60
2014,10,09,12,47,15.60
2014,10,09,12,48,15.60
2014,10,09,12,49,15.60
2014,10,09,12,50,15.60
2014,10,09,12,51,15.50
2014,10,09,12,52,15.50
2014,10,09,12,53,15.50
2014,10,09,12,54,15.50
2014,10,09,12,55,15.50
2014,10,09,12,56,15.50
2014,10,09,12,57,15.50
2014,10,09,12,58,15.50
2014,10,09,12,59,15.50
2014,10,09,13,00,15.50
2014,10,09,13,01,15.50
2014,10,09,13,02,15.50
2014,10,09,13,03,15.50
2014,10,09,13,04,15.50
2014,10,09,13,05,15.50
2014,10,09,13,06,15.50
2014,10,09,13,07,15.60
2014,10,09,13,08,15.60
2014,10,09,13,09,15.60
2014,10,09,13,10,15.60
2014,10,09,13,11,15.60
2014,10,09,13,12,15.70
2014,10,09,13,13,15.70
2014,10,09,13,14,15.80
2014,10,09,13,15,15.80
2014,10,09,13,16,15.80
2014,10,09,13,17,15.80
2014,10,09,13,18,15.80
2014,10,09,13,19,15.80
2014,10,09,13,20,15.90
2014,10,09,13,21,15.90
2014,10,09,13,22,15.90
2014,10,09,13,23,15.90
2014,10,09,13,24,16.00
2014,10,09,13,25,16.00
2014,10,09,13,26,16.10
2014,10,09,13,27,16.10
2014,10,09,13,28,16.10
2014,10,09,13,29,16.10
2014,10,09,13,30,16.10
2014,10,09,13,31,16.10
2014,10,09,13,32,16.10
2014,10,09,13,33,16.10
2014,10,09,13,34,16.10
2014,10,09,13,35,16.10
2014,10,09,13,36,16.10
2014,10,09,13,37,16.20
2014,10,09,13,38,16.20
2014,10,09,13,39,16.30
2014,10,09,13,40,16.30
2014,10,09,13,41,16.40
2014,10,09,13,42,16.40
2014,10,09,13,43,16.40
2014,10,09,13,44,16.40
2014,10,09,13,45,16.40
2014,10,09,13,46,16.50
2014,10,09,13,47,16.50
2014,10,09,13,48,16.60
2014,10,09,13,49,16.60
2014,10,09,13,50,16.60
2014,10,09,13,51,16.60
2014,10,09,13,52,16.60
2014,10,09,13,53,16.70
2014,10,09,13,54,16.70
2014,10,09,13,55,16.80
2014,10,09,13,56,16.90
2014,10,09,13,57,17.00
2014,10,09,13,58,17.10
2014,10,09,13,59,17.10
2014,10,09,14,00,17.20
2014,10,09,14,01,17.20
2014,10,09,14,02,17.20
2014,10,09,14,03,17.30
2014,10,09,14,04,17.30
2014,10,09,14,05,17.40
2014,10,09,14,06,17.40
2014,10,09,14,07,17.40
2014,10,09,14,08,17.50
2014,10,09,14,09,17.50
2014,10,09,14,10,17.50
2014,10,09,14,11,17.50
2014,10,09,14,12,17.50
2014,10,09,14,13,17.60
2014,10,09,14,14,17.60
2014,10,09,14,15,17.60
2014,10,09,14,16,17.70
2014,10,09,14,17,17.70
2014,10,09,14,18,17.80
2014,10,09,14,19,17.80
2014,10,09,14,20,17.80
2014,10,09,14,21,17.90
2014,10,09,14,22,17.90
2014,10,09,14,23,17.90
2014,10,09,14,24,17.90
2014,10,09,14,25,17.90
2014,10,09,14,26,17.90
2014,10,09,14,27,17.90
2014,10,09,14,28,17.90
2014,10,09,14,29,18.00
2014,10,09,14,30,18.00
2014,10,09,14,31,18.10
2014,10,09,14,32,18.20
2014,10,09,14,33,18.20
2014,10,09,14,34,18.30
2014,10,09,14,35,18.30
2014,10,09,14,36,18.40
2014,10,09,14,37,18.40
2014,10,09,14,38,18.40
2014,10,09,14,39,18.40
2014,10,09,14,40,18.40
2014,10,09,14,41,18.40
2014,10,09,14,42,18.50
2014,10,09,14,43,18.50
2014,10,09,14,44,18.60
2014,10,09,14,45,18.60
2014,10,09,14,46,18.60
2014,10,09,14,47,18.70
2014,10,09,14,48,18.70
2014,10,09,14,49,18.80
2014,10,09,14,50,18.90
2014,10,09,14,51,18.90
2014,10,09,14,52,18.90
2014,10,09,14,53,19.00
2014,10,09,14,54,19.00
2014,10,09,14,55,19.10
2014,10,09,14,56,19.10
2014,10,09,14,57,19.10
2014,10,09,14,58,19.10
2014,10,09,14,59,19.10
2014,10,09,15,00,19.10
2014,10,09,15,01,19.10
2014,10,09,15,02,19.10
2014,10,09,15,03,19.10
2014,10,09,15,04,19.20
2014,10,09,15,05,19.20
2014,10,09,15,06,19.20
2014,10,09,15,07,19.30
2014,10,09,15,08,19.30
2014,10,09,15,09,19.30
2014,10,09,15,10,19.40
2014,10,09,15,11,19.40
2014,10,09,15,12,19.40
2014,10,09,15,13,19.30
2014,10,09,15,14,19.30
2014,10,09,15,15,19.30
2014,10,09,15,16,19.30
2014,10,09,15,17,19.30
2014,10,09,15,18,19.30
2014,10,09,15,19,19.30
2014,10,09,15,20,19.20
2014,10,09,15,21,19.30
2014,10,09,15,22,19.30
2014,10,09,15,23,19.30
2014,10,09,15,24,19.30
2014,10,09,15,25,19.30
2014,10,09,15,26,19.30
2014,10,09,15,27,19.30
2014,10,09,15,28,19.30
2014,10,09,15,29,19.30
2014,10,09,15,30,19.40
2014,10,09,15,31,19.40
2014,10,09,15,32,19.40
2014,10,09,15,33,19.40
2014,10,09,15,34,19.40
2014,10,09,15,35,19.50
2014,10,09,15,36,19.50
2014,10,09,15,37,19.60
2014,10,09,15,38,19.60
2014,10,09,15,39,19.60
2014,10,09,15,40,19.60
2014,10,09,15,41,19.60
2014,10,09,15,42,19.70
2014,10,09,15,43,19.70
2014,10,09,15,44,19.70
2014,10,09,15,45,19.80
2014,10,09,15,46,19.80
2014,10,09,15,47,19.80
2014,10,09,15,48,19.90
2014,10,09,15,49,19.90
2014,10,09,15,50,19.90
2014,10,09,15,51,19.90
2014,10,09,15,52,19.90
2014,10,09,15,53,19.90
2014,10,09,15,54,19.80
2014,10,09,15,55,19.80
2014,10,09,15,56,19.80
2014,10,09,15,57,19.70
2014,10,09,15,58,19.70
2014,10,09,15,59,19.70
2014,10,09,16,00,19.70
2014,10,09,16,01,19.70
2014,10,09,16,02,19.70
2014,10,09,16,03,19.70
2014,10,09,16,04,19.60
2014,10,09,16,05,19.60
2014,10,09,16,06,19.60
2014,10,09,16,07,19.50
2014,10,09,16,08,19.50
2014,10,09,16,09,19.40
2014,10,09,16,10,19.40
2014,10,09,16,11,19.40
2014,10,09,16,12,19.40
2014,10,09,16,13,19.40
2014,10,09,16,14,19.40
2014,10,09,16,15,19.40
2014,10,09,16,16,19.40
2014,10,09,16,17,19.40
2014,10,09,16,18,19.40
2014,10,09,16,19,19.40
2014,10,09,16,20,19.40
2014,10,09,16,21,19.40
2014,10,09,16,22,19.40
2014,10,09,16,23,19.30
2014,10,09,16,24,19.30
2014,10,09,16,25,19.30
2014,10,09,16,26,19.30
2014,10,09,16,27,19.30
2014,10,09,16,28,19.30
2014,10,09,16,29,19.30
2014,10,09,16,30,19.30
2014,10,09,16,31,19.30
2014,10,09,16,32,19.30
2014,10,09,16,33,19.30
2014,10,09,16,34,19.30
2014,10,09,16,35,19.30
2014,10,09,16,36,19.30
2014,10,09,16,37,19.20
2014,10,09,16,38,19.20
2014,10,09,16,39,19.20
2014,10,09,16,40,19.20
2014,10,09,16,41,19.20
2014,10,09,16,42,19.20
2014,10,09,16,43,19.20
2014,10,09,16,44,19.20
2014,10,09,16,45,19.10
2014,10,09,16,46,19.10
2014,10,09,16,47,19.10
2014,10,09,16,48,19.00
2014,10,09,16,49,19.00
2014,10,09,16,50,19.00
2014,10,09,16,51,18.90
2014,10,09,16,52,18.90
2014,10,09,16,53,18.90
2014,10,09,16,54,18.90
2014,10,09,16,55,18.90
2014,10,09,16,56,18.90
2014,10,09,16,57,18.90
2014,10,09,16,58,18.90
2014,10,09,16,59,18.90
2014,10,09,17,00,18.90
2014,10,09,17,01,18.90
2014,10,09,17,02,18.90
2014,10,09,17,03,18.90
2014,10,09,17,04,18.90
2014,10,09,17,05,18.90
2014,10,09,17,06,18.90
2014,10,09,17,07,18.80
2014,10,09,17,08,18.80
2014,10,09,17,09,18.80
2014,10,09,17,10,18.80
2014,10,09,17,11,18.80
2014,10,09,17,12,18.80
2014,10,09,17,13,18.80
2014,10,09,17,14,18.80
2014,10,09,17,15,18.80
2014,10,09,17,16,18.80
2014,10,09,17,17,18.80
2014,10,09,17,18,18.80
2014,10,09,17,19,18.80
2014,10,09,17,20,18.80
2014,10,09,17,21,18.80
2014,10,09,17,22,18.80
2014,10,09,17,23,18.70
2014,10,09,17,24,18.70
2014,10,09,17,25,18.70
2014,10,09,17,26,18.70
2014,10,09,17,27,18.70
2014,10,09,17,28,18.60
2014,10,09,17,29,18.60
2014,10,09,17,30,18.60
2014,10,09,17,31,18.60
2014,10,09,17,32,18.50
2014,10,09,17,33,18.50
2014,10,09,17,34,18.40
2014,10,09,17,35,18.40
2014,10,09,17,36,18.40
2014,10,09,17,37,18.40
2014,10,09,17,38,18.40
2014,10,09,17,39,18.30
2014,10,09,17,40,18.30
2014,10,09,17,41,18.30
2014,10,09,17,42,18.30
2014,10,09,17,43,18.30
2014,10,09,17,44,18.20
2014,10,09,17,45,18.20
2014,10,09,17,46,18.20
2014,10,09,17,47,18.20
2014,10,09,17,48,18.10
2014,10,09,17,49,18.10
2014,10,09,17,50,18.10
2014,10,09,17,51,18.00
2014,10,09,17,52,18.00
2014,10,09,17,53,18.00
2014,10,09,17,54,17.90
2014,10,09,17,55,17.90
2014,10,09,17,56,17.90
2014,10,09,17,57,17.80
2014,10,09,17,58,17.80
2014,10,09,17,59,17.80
2014,10,09,18,00,17.80
2014,10,09,18,01,17.70
2014,10,09,18,02,17.70
2014,10,09,18,03,17.70
2014,10,09,18,04,17.70
2014,10,09,18,05,17.60
2014,10,09,18,06,17.60
2014,10,09,18,07,17.60
2014,10,09,18,08,17.50
2014,10,09,18,09,17.50
2014,10,09,18,10,17.50
2014,10,09,18,11,17.40
2014,10,09,18,12,17.40
2014,10,09,18,13,17.40
2014,10,09,18,14,17.40
2014,10,09,18,15,17.30
2014,10,09,18,16,17.30
2014,10,09,18,17,17.30
2014,10,09,18,18,17.30
2014,10,09,18,19,17.20
2014,10,09,18,20,17.20
2014,10,09,18,21,17.20
2014,10,09,18,22,17.10
2014,10,09,18,23,17.10
2014,10,09,18,24,17.10
2014,10,09,18,25,17.00
2014,10,09,18,26,17.00
2014,10,09,18,27,16.90
2014,10,09,18,28,16.90
2014,10,09,18,29,16.80
2014,10,09,18,30,16.80
2014,10,09,18,31,16.80
2014,10,09,18,32,16.70
2014,10,09,18,33,16.70
2014,10,09,18,34,16.70
2014,10,09,18,35,16.60
2014,10,09,18,36,16.60
2014,10,09,18,37,16.50
2014,10,09,18,38,16.50
2014,10,09,18,39,16.50
2014,10,09,18,40,16.40
2014,10,09,18,41,16.40
2014,10,09,18,42,16.30
2014,10,09,18,43,16.30
2014,10,09,18,44,16.30
2014,10,09,18,45,16.30
2014,10,09,18,46,16.20
2014,10,09,18,47,16.20
2014,10,09,18,48,16.20
2014,10,09,18,49,16.10
2014,10,09,18,50,16.10
2014,10,09,18,51,16.10
2014,10,09,18,52,16.00
2014,10,09,18,53,16.00
2014,10,09,18,54,16.00
2014,10,09,18,55,15.90
2014,10,09,18,56,15.90
2014,10,09,18,57,15.90
2014,10,09,18,58,15.80
2014,10,09,18,59,15.80
2014,10,09,19,00,15.80
2014,10,09,19,01,15.70